Location: Newark
(52.3500°N, 175.9667°E)
Time: 18:01:29
(UTC+00:00)

X-37B - Pass Details

Date: 14 March 2021
Orbit: 380 x 394 km, 45.0° (Epoch: 07 April)

Event Time Altitude Azimuth Distance (km) Brightness Sun altitude
Rises 07:12:51 0° 214° (SSW) 2,265 4.8 -9.1°
Reaches altitude 10° 07:15:54 10° 182° (S) 1,417 3.4 -9.6°
Maximum altitude 07:17:14 12° 157° (SSE) 1,301 2.9 -9.8°
Enters shadow 07:18:24 10° 135° (SE) 1,396 2.9 -10.0°
